User: anonymous   Login
Location: ????
(55.2778°N, 39.2433°E)
Time: 05:53:59
(UTC+00:00)
Language:

Envisat - Orbit

View from above orbital plane
View from above orbital plane
View from above satellite
View from above satellite

Ground track
Ground track

The orbit data is extracted from the following two-line orbital elements,

1 27386U 02009A   24174.85713699  .00000167  00000-0  68208-4 0  9995
2 27386  98.2824 135.7484 0001373  90.4805 281.6021 14.38593278169391
Epoch (UTC): 22 June 2024 20:34:16
Eccentricity: 0.0001373
inclination: 98.2824°
perigee height: 762 km
apogee height: 764 km
right ascension of ascending node: 135.7484°
argument of perigee: 90.4805°
revolutions per day: 14.38593278
mean anomaly at epoch: 281.6021°
orbit number at epoch: 16939

The dashed part of the orbit path shows where the satellite is in the earth's shadow,  

DLR